Simultaneous Nadir Overpasses (SNOs) Predictions

Prediction of SNOs between GOES-15 and TERRA Satellite Orbit:

Table of predicted SNOs for the next 14.0 days since TLE Epoch: 1/24/2016
Index Date Time (GOES-15) GOES-15 Lat,Lon TERRA Lat,Lon Distance(km) Time Diff (sec)
1 01/25/2016 19:28:09 0.03,-135.11 -0.19,-134.13 111.06 80
2 01/26/2016 07:49:33 -0.04,-135.15 -0.91,-139.32 474.20 80
3 01/27/2016 19:15:57 0.04,-135.16 -0.81,-131.17 452.81 80
4 01/28/2016 07:37:21 -0.04,-135.20 -0.30,-136.36 132.64 80
5 01/30/2016 07:22:29 -0.04,-135.24 0.32,-133.41 208.45 80
6 01/30/2016 19:43:45 0.05,-135.22 0.74,-138.57 380.31 80
7 02/01/2016 19:31:33 0.04,-135.26 0.10,-135.61 39.89 80
8 02/03/2016 19:22:01 0.04,-135.29 -0.54,-132.66 299.88 80
9 02/04/2016 07:43:25 -0.04,-135.33 -0.56,-137.85 285.46 80
10 02/06/2016 07:28:32 -0.04,-135.36 0.04,-134.88 53.41 80




NCC Satellite Simultaneous Nadir Overpasses (SNOs) Prediction Service
